TimeMST,TemperatureF,Dew PointF,Humidity,Sea Level PressureIn,VisibilityMPH,Wind Direction,Wind SpeedMPH,Gust SpeedMPH,PrecipitationIn,Events,Conditions,WindDirDegrees,DateUTC
12:55 AM,19.0,16.0,88,30.28,10.0,Calm,Calm,-,N/A,,Clear,0,2012-11-28 07:55:00
1:55 AM,16.0,14.0,92,30.27,10.0,Calm,Calm,-,N/A,,Clear,0,2012-11-28 08:55:00
2:55 AM,15.1,12.9,91,30.26,10.0,Calm,Calm,-,N/A,,Clear,0,2012-11-28 09:55:00
3:55 AM,15.1,12.0,88,30.23,10.0,Calm,Calm,-,N/A,,Clear,0,2012-11-28 10:55:00
4:55 AM,14.0,10.9,88,30.22,10.0,East,4.6,-,N/A,,Clear,90,2012-11-28 11:55:00
5:55 AM,15.1,12.0,88,30.21,10.0,Calm,Calm,-,N/A,,Clear,0,2012-11-28 12:55:00
6:55 AM,12.0,10.0,92,30.20,10.0,WNW,3.5,-,N/A,,Clear,290,2012-11-28 13:55:00
7:55 AM,16.0,12.9,88,30.18,10.0,WNW,3.5,-,N/A,,Clear,290,2012-11-28 14:55:00
8:55 AM,21.9,18.0,85,30.16,10.0,Calm,Calm,-,N/A,,Clear,0,2012-11-28 15:55:00
9:55 AM,28.9,21.9,75,30.14,10.0,Calm,Calm,-,N/A,,Clear,0,2012-11-28 16:55:00
10:55 AM,36.0,25.0,64,30.11,10.0,Calm,Calm,-,N/A,,Clear,0,2012-11-28 17:55:00
11:55 AM,42.1,25.0,51,30.06,10.0,WSW,9.2,-,N/A,,Clear,250,2012-11-28 18:55:00
12:55 PM,44.1,23.0,43,30.04,10.0,West,8.1,-,N/A,,Clear,270,2012-11-28 19:55:00
1:55 PM,45.0,24.1,44,30.03,10.0,West,8.1,-,N/A,,Clear,270,2012-11-28 20:55:00
2:55 PM,44.1,25.0,47,30.01,10.0,SSW,3.5,-,N/A,,Clear,210,2012-11-28 21:55:00
3:55 PM,41.0,24.1,51,30.04,10.0,West,5.8,-,N/A,,Clear,280,2012-11-28 22:55:00
4:55 PM,34.0,23.0,64,30.06,10.0,West,4.6,-,N/A,,Clear,280,2012-11-28 23:55:00
5:55 PM,30.9,23.0,72,30.07,10.0,West,5.8,-,N/A,,Clear,260,2012-11-29 00:55:00
6:55 PM,26.1,19.9,78,30.08,10.0,West,8.1,-,N/A,,Clear,280,2012-11-29 01:55:00
7:55 PM,23.0,18.0,81,30.09,10.0,WNW,6.9,-,N/A,,Clear,290,2012-11-29 02:55:00
8:55 PM,21.9,18.0,85,30.08,10.0,West,4.6,-,N/A,,Clear,260,2012-11-29 03:55:00
9:55 PM,25.0,21.0,85,30.06,10.0,WNW,6.9,-,N/A,,Clear,290,2012-11-29 04:55:00
10:55 PM,21.0,18.0,88,30.06,10.0,Calm,Calm,-,N/A,,Clear,0,2012-11-29 05:55:00
11:55 PM,17.1,12.9,84,30.06,10.0,West,3.5,-,N/A,,Clear,270,2012-11-29 06:55:00